Weather History for Dayton Wright, OH

Change the Weather History Date:

Sunday, August 18, 2013

  Actual Average (KFFO) Record (KFFO)
Temperature  
Mean Temperature 69 °F -  
Max Temperature 81 °F 81 °F 89 °F (2011)
Min Temperature 59 °F 60 °F 53 °F (2007)
Cooling Degree Days 4    
Growing Degree Days 19 (Base 50)    
Moisture  
Dew Point 60 °F    
Average Humidity 73    
Maximum Humidity 96    
Minimum Humidity 48    
Precipitation  
Precipitation 0.00 in - - ()
Sea Level Pressure  
Sea Level Pressure 30.14 in    
Wind  
Wind Speed 5 mph (East)    
Max Wind Speed 7 mph    
Max Gust Speed -    
Visibility 10 miles    
Events      
Averages and records for this station are not official NWS values.
T = Trace of Precipitation, MM = Missing Value Source: NWS Daily Summary

Daily Weather History Graph

Daily Weather History Graph

Search for Another Location

Airport:

Trip Planner

Search our weather history database for the weather conditions in past years. The results will help you decide how hot, cold, wet, or windy it might be!

Date:

Astronomy

Aug. 18, 2013 Rise Set
Actual Time 6:52 AM EDT 8:28 PM EDT
Civil Twilight 6:23 AM EDT 8:56 PM EDT
Nautical Twilight 5:49 AM EDT 9:31 PM EDT
Astronomical Twilight 5:12 AM EDT 10:07 PM EDT
Moon 6:33 PM EDT (8/18) 4:00 AM EDT (8/18)
Length of Visible Light 14h 33m
Length of Day
13h 36m
Waxing Gibbous, 92% of the Moon is Illuminated
Aug 18
Waxing Gibbous
Aug 20
Full
Aug 28
Last Quarter
Sep 5
New
Sep 12
First Quarter

Hourly Weather History & Observations

Time (EDT) Temp. Dew Point Humidity Pressure Visibility Wind Dir Wind Speed Gust Speed Precip Events Conditions
12:53 AM 66.0 °F 60.1 °F 81% 30.15 in 10.0 mi East 3.5 mph - N/A   Clear
1:53 AM 63.0 °F 60.1 °F 90% 30.14 in 10.0 mi East 4.6 mph - N/A   Clear
2:53 AM 61.0 °F 57.9 °F 90% 30.14 in 9.0 mi NE 5.8 mph - N/A   Clear
3:53 AM 61.0 °F 57.9 °F 90% 30.14 in 9.0 mi ENE 4.6 mph - N/A   Clear
4:53 AM 60.1 °F 57.9 °F 93% 30.14 in 9.0 mi NE 5.8 mph - N/A   Clear
5:53 AM 61.0 °F 59.0 °F 93% 30.14 in 9.0 mi ENE 5.8 mph - N/A   Clear
6:53 AM 59.0 °F 57.9 °F 96% 30.15 in 7.0 mi NE 5.8 mph - N/A   Clear
7:53 AM 60.1 °F 59.0 °F 96% 30.18 in 5.0 mi ENE 4.6 mph - N/A   Clear
8:53 AM 66.0 °F 60.1 °F 81% 30.18 in 10.0 mi ENE 5.8 mph - N/A   Clear
9:53 AM 70.0 °F 59.0 °F 68% 30.18 in 10.0 mi ENE 4.6 mph - N/A   Clear
10:53 AM 73.0 °F 59.0 °F 61% 30.19 in 10.0 mi Variable 4.6 mph - N/A   Clear
11:53 AM 75.0 °F 57.9 °F 55% 30.17 in 10.0 mi ENE 5.8 mph - N/A   Clear
12:53 PM 77.0 °F 55.9 °F 48% 30.16 in 10.0 mi East 6.9 mph - N/A   Clear
1:53 PM 77.0 °F 57.9 °F 52% 30.16 in 10.0 mi East 5.8 mph - N/A   Clear
2:53 PM 78.1 °F 57.9 °F 50% 30.14 in 10.0 mi Calm Calm - N/A   Partly Cloudy
3:53 PM 79.0 °F 60.1 °F 52% 30.12 in 10.0 mi Variable 4.6 mph - N/A   Partly Cloudy
4:53 PM 78.1 °F 59.0 °F 52% 30.12 in 10.0 mi SSE 4.6 mph - N/A   Mostly Cloudy
5:53 PM 79.0 °F 59.0 °F 50% 30.11 in 10.0 mi South 4.6 mph - N/A   Clear
6:53 PM 77.0 °F 61.0 °F 58% 30.10 in 10.0 mi SSE 3.5 mph - N/A   Scattered Clouds
7:53 PM 75.0 °F 60.1 °F 60% 30.10 in 10.0 mi SE 3.5 mph - N/A   Clear
8:53 PM 72.0 °F 64.9 °F 78% 30.11 in 10.0 mi SSE 5.8 mph - N/A   Scattered Clouds
9:53 PM 69.1 °F 64.9 °F 87% 30.13 in 10.0 mi SE 3.5 mph - N/A   Clear
10:53 PM 68.0 °F 64.0 °F 87% 30.13 in 10.0 mi SSE 4.6 mph - N/A   Clear
11:53 PM 66.9 °F 64.0 °F 90% 30.14 in 10.0 mi SSE 4.6 mph - N/A   Clear